TimeCDT,TemperatureF,Dew PointF,Humidity,Sea Level PressureIn,VisibilityMPH,Wind Direction,Wind SpeedMPH,Gust SpeedMPH,PrecipitationIn,Events,Conditions,WindDirDegrees,DateUTC
12:56 AM,75.0,73.0,94,30.06,10.0,Calm,Calm,-,N/A,,Partly Cloudy,0,2013-07-19 05:56:00
1:56 AM,75.0,73.9,96,30.05,10.0,Calm,Calm,-,N/A,,Clear,0,2013-07-19 06:56:00
2:22 AM,75.2,73.4,94,30.04,10.0,NNE,3.5,-,N/A,,Mostly Cloudy,20,2013-07-19 07:22:00
2:34 AM,75.2,71.6,89,30.04,10.0,Calm,Calm,-,N/A,,Scattered Clouds,0,2013-07-19 07:34:00
2:56 AM,73.9,72.0,93,30.03,7.0,Calm,Calm,-,N/A,,Partly Cloudy,0,2013-07-19 07:56:00
3:56 AM,75.0,73.0,94,30.03,10.0,North,4.6,-,N/A,,Scattered Clouds,10,2013-07-19 08:56:00
4:09 AM,75.2,73.4,94,30.03,10.0,NNE,3.5,-,N/A,,Mostly Cloudy,20,2013-07-19 09:09:00
4:29 AM,75.2,73.4,94,30.03,10.0,Calm,Calm,-,N/A,,Mostly Cloudy,0,2013-07-19 09:29:00
4:56 AM,75.9,73.9,94,30.03,10.0,Calm,Calm,-,N/A,,Mostly Cloudy,0,2013-07-19 09:56:00
5:56 AM,75.0,73.9,96,30.03,10.0,Calm,Calm,-,N/A,,Partly Cloudy,0,2013-07-19 10:56:00
6:56 AM,77.0,75.0,94,30.05,10.0,NE,5.8,-,N/A,,Mostly Cloudy,40,2013-07-19 11:56:00
7:16 AM,77.0,75.2,94,30.05,10.0,NE,5.8,-,N/A,,Mostly Cloudy,50,2013-07-19 12:16:00
7:56 AM,79.0,75.9,90,30.07,10.0,NE,9.2,-,N/A,,Mostly Cloudy,50,2013-07-19 12:56:00
8:24 AM,80.6,75.2,84,30.07,10.0,ENE,11.5,-,N/A,,Mostly Cloudy,60,2013-07-19 13:24:00
8:53 AM,82.4,75.2,79,30.07,10.0,ENE,11.5,-,N/A,,Mostly Cloudy,70,2013-07-19 13:53:00
8:56 AM,81.0,73.9,79,30.08,10.0,ENE,11.5,-,N/A,,Mostly Cloudy,70,2013-07-19 13:56:00
9:42 AM,82.4,75.2,79,30.08,10.0,NE,13.8,-,N/A,Thunderstorm,Thunderstorm,40,2013-07-19 14:42:00
9:56 AM,82.0,75.0,79,30.07,10.0,ENE,13.8,-,N/A,Thunderstorm,Thunderstorm,60,2013-07-19 14:56:00
10:33 AM,84.2,75.2,74,30.07,10.0,ENE,12.7,-,N/A,,Mostly Cloudy,60,2013-07-19 15:33:00
10:46 AM,84.2,75.2,74,30.07,10.0,ENE,9.2,-,N/A,,Mostly Cloudy,60,2013-07-19 15:46:00
10:56 AM,81.0,75.0,82,30.07,10.0,ENE,9.2,-,N/A,,Mostly Cloudy,70,2013-07-19 15:56:00
11:12 AM,80.6,75.2,84,30.07,10.0,ENE,8.1,-,0.00,Rain,Light Rain,70,2013-07-19 16:12:00
11:56 AM,81.0,75.0,82,30.06,10.0,East,8.1,-,0.00,Rain,Light Rain,80,2013-07-19 16:56:00
12:05 PM,82.4,75.2,79,30.05,10.0,East,9.2,-,0.00,,Mostly Cloudy,90,2013-07-19 17:05:00
12:46 PM,82.4,73.4,74,30.04,10.0,ESE,15.0,19.6,0.00,Rain,Light Rain,110,2013-07-19 17:46:00
12:56 PM,82.9,73.9,74,30.05,10.0,ESE,11.5,-,0.00,,Mostly Cloudy,110,2013-07-19 17:56:00
1:37 PM,80.6,73.4,79,30.03,10.0,ESE,16.1,-,N/A,,Mostly Cloudy,120,2013-07-19 18:37:00
1:56 PM,81.0,73.9,79,30.04,10.0,ESE,12.7,-,N/A,,Mostly Cloudy,120,2013-07-19 18:56:00
2:56 PM,79.0,73.0,82,30.04,10.0,ESE,12.7,-,0.00,Rain,Light Rain,120,2013-07-19 19:56:00
3:56 PM,77.0,73.0,88,30.02,10.0,SE,10.4,-,0.00,Rain,Light Rain,130,2013-07-19 20:56:00
4:56 PM,78.1,75.9,93,30.00,10.0,ESE,9.2,-,0.02,Rain,Light Rain,120,2013-07-19 21:56:00
5:30 PM,80.6,75.2,84,29.99,10.0,ESE,8.1,-,0.00,,Overcast,120,2013-07-19 22:30:00
5:56 PM,80.1,73.9,81,29.99,10.0,SE,12.7,-,0.00,,Overcast,130,2013-07-19 22:56:00
6:56 PM,80.1,73.9,81,29.98,10.0,SSE,10.4,-,N/A,,Overcast,150,2013-07-19 23:56:00
7:56 PM,79.0,75.0,88,29.99,10.0,SE,8.1,-,N/A,,Overcast,130,2013-07-20 00:56:00
8:56 PM,79.0,73.0,82,29.99,10.0,SE,9.2,-,N/A,,Overcast,140,2013-07-20 01:56:00
9:56 PM,79.0,75.0,88,30.00,10.0,SSE,11.5,-,N/A,,Overcast,150,2013-07-20 02:56:00
10:56 PM,78.1,75.0,90,30.01,10.0,South,8.1,-,N/A,,Overcast,170,2013-07-20 03:56:00
11:56 PM,78.1,75.0,90,30.01,10.0,Calm,Calm,-,N/A,,Clear,0,2013-07-20 04:56:00